User: anonymous   Login
Location: Celina Division
(33.3022°N, 96.7580°W)
Time: 12:28:02
(UTC+00:00)
Language:

SL-27 R/B - Orbit

View from above orbital plane
View from above orbital plane
View from above satellite
View from above satellite

Ground track
Ground track

The orbit data is extracted from the following two-line orbital elements,

1 40354U 14084B   22142.88421895  .00009056  00000-0  19756-3 0  9990
2 40354  74.7389   8.4135 0035723 201.7805 158.1892 15.43599919417056
Epoch (UTC): 22 May 2022 21:13:16
Eccentricity: 0.0035723
inclination: 74.7389°
perigee height: 411 km
apogee height: 460 km
right ascension of ascending node: 8.4135°
argument of perigee: 201.7805°
revolutions per day: 15.43599919
mean anomaly at epoch: 158.1892°
orbit number at epoch: 41705

The dashed part of the orbit path shows where the satellite is in the earth's shadow,  

DLR